FDX25 PHOG-PHLI

Flight info

Callsign FDX25
Flight time 0h 40m
Altitude 24000
Route MAUI5 OGG LNY V16 NAPUA LIH
Aircraft B738/M-SDE2E3FGHIRWXY/LB1

Departure

Time 2026-04-22 19:42
Airport Kahului International Airport (PHOG)

Arrival

Time 2026-04-22 20:22
Airport Lihue Airport (PHLI)
Time Latitude Longitude Altitude Speed Heading
2026-04-22 19:17 20.88932 -156.43914 57 ft 0 kts 159°
2026-04-22 19:38 20.88931 -156.43913 60 ft 1 kts 159°
2026-04-22 19:38 20.88928 -156.43909 60 ft 0 kts 128°
2026-04-22 19:39 20.88924 -156.43903 61 ft 4 kts 128°
2026-04-22 19:39 20.88906 -156.43858 61 ft 11 kts 95°
2026-04-22 19:39 20.88965 -156.43761 58 ft 18 kts 43°
2026-04-22 19:40 20.88982 -156.43698 61 ft 0 kts 111°
2026-04-22 19:40 20.88971 -156.43680 58 ft 9 kts 124°
2026-04-22 19:41 20.88978 -156.43587 58 ft 17 kts 47°
2026-04-22 19:41 20.89099 -156.43495 54 ft 43 kts 34°
2026-04-22 19:41 20.89589 -156.43133 45 ft 125 kts 35°
2026-04-22 19:41 20.90491 -156.42458 85 ft 185 kts 35°
2026-04-22 19:42 20.91505 -156.41629 1161 ft 174 kts 38°
2026-04-22 19:42 20.92463 -156.40868 2202 ft 175 kts 30°
2026-04-22 19:42 20.93679 -156.40362 2736 ft 202 kts
2026-04-22 19:42 20.95128 -156.40359 3376 ft 210 kts
2026-04-22 19:43 20.98237 -156.40488 4298 ft 256 kts 343°
2026-04-22 19:43 20.99984 -156.41159 4929 ft 271 kts 340°
2026-04-22 19:43 21.01762 -156.41893 5825 ft 274 kts 339°
2026-04-22 19:44 21.03546 -156.42626 6795 ft 275 kts 339°
2026-04-22 19:44 21.05235 -156.43597 7634 ft 278 kts 320°
2026-04-22 19:44 21.06501 -156.45146 8516 ft 279 kts 299°
2026-04-22 19:44 21.07192 -156.47071 9369 ft 281 kts 283°
2026-04-22 19:45 21.07580 -156.49135 10224 ft 285 kts 280°
2026-04-22 19:45 21.07932 -156.51301 10548 ft 308 kts 279°
2026-04-22 19:45 21.08219 -156.53671 10742 ft 333 kts 269°
2026-04-22 19:45 21.07741 -156.56133 11247 ft 345 kts 248°
2026-04-22 19:46 21.06416 -156.58304 11890 ft 354 kts 226°
2026-04-22 19:46 21.04450 -156.59931 12559 ft 360 kts 217°
2026-04-22 19:46 21.02641 -156.61759 13167 ft 366 kts 233°
2026-04-22 19:46 21.01344 -156.64122 13817 ft 370 kts 250°
2026-04-22 19:47 21.00703 -156.66787 14441 ft 371 kts 266°
2026-04-22 19:47 21.00612 -156.69537 15161 ft 371 kts 265°
2026-04-22 19:47 21.00194 -156.71321 15585 ft 376 kts 248°
2026-04-22 19:47 20.97993 -156.74243 16490 ft 385 kts 217°
2026-04-22 19:48 20.95739 -156.75811 17152 ft 388 kts 215°
2026-04-22 19:48 20.93709 -156.77670 17731 ft 390 kts 230°
2026-04-22 19:48 20.92184 -156.80072 18370 ft 390 kts 246°
2026-04-22 19:48 20.91305 -156.82800 18948 ft 388 kts 261°
2026-04-22 19:49 20.91133 -156.85661 19592 ft 384 kts 276°
2026-04-22 19:49 20.91621 -156.88443 20355 ft 378 kts 286°
2026-04-22 19:49 20.92361 -156.91129 21117 ft 375 kts 288°
2026-04-22 19:49 20.93157 -156.93783 21841 ft 373 kts 289°
2026-04-22 19:50 20.94075 -156.96338 22517 ft 371 kts 297°
2026-04-22 19:50 20.95164 -156.98832 23217 ft 370 kts 292°
2026-04-22 19:50 20.96069 -157.01405 23882 ft 369 kts 290°
2026-04-22 19:50 20.96933 -157.03997 24091 ft 369 kts 290°
2026-04-22 19:51 20.97763 -157.06594 24108 ft 368 kts 284°
2026-04-22 19:51 20.97876 -157.09314 24140 ft 371 kts 259°
2026-04-22 19:51 20.97110 -157.11959 24153 ft 374 kts 250°
2026-04-22 19:51 20.96011 -157.14493 24142 ft 378 kts 241°
2026-04-22 19:52 20.94516 -157.16818 24145 ft 380 kts 235°
2026-04-22 19:52 20.93184 -157.19244 24131 ft 378 kts 250°
2026-04-22 19:52 20.92520 -157.21941 24136 ft 374 kts 265°
2026-04-22 19:52 20.92568 -157.24705 24131 ft 372 kts 280°
2026-04-22 19:53 20.93197 -157.27378 24142 ft 370 kts 287°
2026-04-22 19:53 20.93975 -157.29964 24138 ft 370 kts 289°
2026-04-22 19:53 20.94521 -157.31697 24130 ft 369 kts 289°
2026-04-22 19:53 20.95629 -157.35171 24127 ft 369 kts 289°
2026-04-22 19:54 20.96346 -157.37809 24128 ft 368 kts 284°
2026-04-22 19:54 20.96923 -157.40481 24129 ft 368 kts 283°
2026-04-22 19:54 20.97460 -157.43161 24127 ft 368 kts 282°
2026-04-22 19:54 20.97989 -157.45809 24130 ft 368 kts 283°
2026-04-22 19:55 20.98533 -157.48483 24125 ft 368 kts 283°
2026-04-22 19:55 20.99091 -157.51167 24124 ft 368 kts 283°
2026-04-22 19:55 20.99655 -157.53840 24125 ft 368 kts 283°
2026-04-22 19:55 21.00224 -157.56515 24125 ft 369 kts 283°
2026-04-22 19:56 21.00798 -157.59199 24128 ft 369 kts 283°
2026-04-22 19:56 21.01372 -157.61874 24123 ft 369 kts 283°
2026-04-22 19:56 21.01946 -157.64553 24124 ft 370 kts 283°
2026-04-22 19:56 21.02523 -157.67245 24123 ft 370 kts 283°
2026-04-22 19:57 21.03097 -157.69927 24127 ft 370 kts 283°
2026-04-22 19:57 21.03663 -157.72576 24128 ft 370 kts 283°
2026-04-22 19:57 21.04238 -157.75265 24129 ft 370 kts 283°
2026-04-22 19:57 21.04813 -157.77956 24128 ft 370 kts 283°
2026-04-22 19:58 21.05386 -157.80645 24127 ft 370 kts 283°
2026-04-22 19:58 21.05959 -157.83331 24126 ft 370 kts 283°
2026-04-22 19:58 21.06531 -157.86019 24131 ft 370 kts 283°
2026-04-22 19:58 21.07104 -157.88710 24135 ft 370 kts 283°
2026-04-22 19:59 21.07676 -157.91399 24131 ft 370 kts 283°
2026-04-22 20:00 21.11587 -158.06911 24148 ft 354 kts 289°
2026-04-22 20:00 21.12122 -158.08551 24085 ft 350 kts 289°
2026-04-22 20:01 21.12918 -158.11010 23800 ft 348 kts 289°
2026-04-22 20:01 21.13703 -158.13459 23350 ft 348 kts 289°
2026-04-22 20:01 21.14480 -158.15905 22862 ft 348 kts 289°
2026-04-22 20:01 21.15261 -158.18375 22455 ft 347 kts 289°
2026-04-22 20:02 21.16032 -158.20822 22096 ft 345 kts 289°
2026-04-22 20:02 21.16787 -158.23220 21728 ft 343 kts 289°
2026-04-22 20:02 21.17546 -158.25633 21347 ft 341 kts 290°
2026-04-22 20:02 21.18305 -158.28047 20972 ft 340 kts 290°
2026-04-22 20:03 21.19079 -158.30429 20607 ft 338 kts 294°
2026-04-22 20:03 21.20139 -158.32661 20239 ft 335 kts 303°
2026-04-22 20:03 21.21379 -158.34773 19902 ft 333 kts 304°
2026-04-22 20:03 21.22628 -158.36856 19561 ft 332 kts 304°
2026-04-22 20:04 21.23869 -158.38934 19218 ft 330 kts 304°
2026-04-22 20:04 21.25097 -158.41005 18883 ft 329 kts 304°
2026-04-22 20:04 21.26315 -158.43075 18562 ft 327 kts 304°
2026-04-22 20:04 21.27517 -158.45126 18185 ft 322 kts 304°
2026-04-22 20:05 21.28701 -158.47151 17802 ft 316 kts 304°
2026-04-22 20:05 21.29855 -158.49124 17492 ft 311 kts 304°
2026-04-22 20:05 21.31019 -158.51112 16918 ft 319 kts 304°
2026-04-22 20:05 21.32203 -158.53135 16479 ft 321 kts 304°
2026-04-22 20:06 21.33374 -158.55138 16096 ft 321 kts 304°
2026-04-22 20:06 21.34556 -158.57162 15760 ft 319 kts 304°
2026-04-22 20:06 21.35734 -158.59180 15427 ft 318 kts 304°
2026-04-22 20:06 21.36912 -158.61197 15082 ft 318 kts 304°
2026-04-22 20:07 21.38085 -158.63208 14737 ft 317 kts 304°
2026-04-22 20:07 21.39252 -158.65209 14410 ft 316 kts 304°
2026-04-22 20:07 21.40416 -158.67205 14086 ft 315 kts 304°
2026-04-22 20:07 21.41579 -158.69199 13723 ft 315 kts 304°
2026-04-22 20:08 21.42738 -158.71189 13408 ft 313 kts 303°
2026-04-22 20:08 21.43886 -158.73161 13101 ft 310 kts 303°
2026-04-22 20:08 21.45012 -158.75095 12804 ft 308 kts 303°
2026-04-22 20:08 21.46145 -158.77042 12490 ft 306 kts 303°
2026-04-22 20:09 21.47270 -158.78976 12171 ft 304 kts 303°
2026-04-22 20:09 21.48385 -158.80893 11884 ft 302 kts 303°
2026-04-22 20:09 21.49499 -158.82810 11591 ft 300 kts 303°
2026-04-22 20:09 21.50601 -158.84704 11297 ft 298 kts 302°
2026-04-22 20:10 21.51692 -158.86580 11010 ft 293 kts 302°
2026-04-22 20:10 21.52760 -158.88415 10689 ft 285 kts 302°
2026-04-22 20:10 21.53799 -158.90199 10328 ft 280 kts 302°
2026-04-22 20:10 21.54823 -158.91957 9965 ft 275 kts 302°
2026-04-22 20:11 21.55822 -158.93673 9483 ft 274 kts 302°
2026-04-22 20:11 21.56832 -158.95410 9019 ft 275 kts 302°
2026-04-22 20:11 21.57841 -158.97146 8788 ft 272 kts 302°
2026-04-22 20:11 21.58837 -158.98860 8493 ft 271 kts 302°
2026-04-22 20:12 21.59835 -159.00578 8205 ft 270 kts 302°
2026-04-22 20:12 21.60819 -159.02272 8009 ft 261 kts 302°
2026-04-22 20:12 21.61763 -159.03898 7932 ft 251 kts 302°
2026-04-22 20:12 21.62686 -159.05489 7676 ft 250 kts 303°
2026-04-22 20:13 21.63612 -159.07085 7331 ft 253 kts 303°
2026-04-22 20:13 21.64550 -159.08700 7043 ft 254 kts 303°
2026-04-22 20:13 21.65458 -159.10268 6908 ft 241 kts 303°
2026-04-22 20:13 21.66321 -159.11757 6578 ft 237 kts 303°
2026-04-22 20:14 21.67213 -159.13295 6044 ft 241 kts 303°
2026-04-22 20:14 21.68094 -159.14814 5716 ft 238 kts 303°
2026-04-22 20:14 21.68966 -159.16317 5382 ft 236 kts 303°
2026-04-22 20:14 21.69827 -159.17807 5116 ft 233 kts 303°
2026-04-22 20:15 21.70660 -159.19249 4862 ft 227 kts 303°
2026-04-22 20:15 21.71472 -159.20690 4612 ft 224 kts 301°
2026-04-22 20:15 21.72214 -159.22154 4375 ft 221 kts 299°
2026-04-22 20:15 21.72930 -159.23611 4142 ft 220 kts 299°
2026-04-22 20:16 21.73647 -159.25078 3930 ft 222 kts 299°
2026-04-22 20:16 21.74360 -159.26534 3837 ft 217 kts 299°
2026-04-22 20:16 21.75043 -159.27943 3746 ft 211 kts 299°
2026-04-22 20:16 21.75691 -159.29322 3647 ft 201 kts 297°
2026-04-22 20:17 21.76264 -159.30663 3565 ft 195 kts 296°
2026-04-22 20:17 21.76822 -159.31973 3522 ft 190 kts 297°
2026-04-22 20:17 21.77669 -159.33015 3376 ft 188 kts 338°
2026-04-22 20:17 21.78906 -159.33275 3260 ft 178 kts 355°
2026-04-22 20:18 21.80112 -159.33436 3206 ft 174 kts 355°
2026-04-22 20:18 21.81337 -159.33553 3002 ft 176 kts 360°
2026-04-22 20:18 21.82538 -159.33586 2772 ft 173 kts
2026-04-22 20:18 21.83731 -159.33592 2559 ft 169 kts
2026-04-22 20:19 21.84878 -159.33593 2351 ft 162 kts
2026-04-22 20:19 21.86003 -159.33592 2131 ft 159 kts
2026-04-22 20:19 21.87086 -159.33592 1921 ft 152 kts
2026-04-22 20:19 21.88135 -159.33591 1722 ft 149 kts
2026-04-22 20:20 21.89130 -159.33591 1536 ft 141 kts
2026-04-22 20:20 21.90114 -159.33590 1349 ft 141 kts
2026-04-22 20:20 21.91078 -159.33578 1201 ft 135 kts
2026-04-22 20:20 21.92005 -159.33605 999 ft 130 kts 360°
2026-04-22 20:21 21.92914 -159.33646 850 ft 132 kts
2026-04-22 20:21 21.93839 -159.33632 671 ft 135 kts
2026-04-22 20:21 21.94800 -159.33585 503 ft 138 kts
2026-04-22 20:21 21.95727 -159.33616 305 ft 132 kts 358°
2026-04-22 20:22 21.96629 -159.33600 115 ft 122 kts
2026-04-22 20:22 21.97357 -159.33593 99 ft 83 kts
2026-04-22 20:22 21.97733 -159.33609 101 ft 39 kts 346°
2026-04-22 20:22 21.97891 -159.33680 100 ft 1 kts 332°
2026-04-22 20:23 21.97897 -159.33683 100 ft 1 kts 332°
2026-04-22 20:23 21.97903 -159.33687 100 ft 1 kts 332°
2026-04-22 20:23 21.97910 -159.33691 100 ft 2 kts 332°
2026-04-22 20:23 21.97926 -159.33711 100 ft 5 kts 295°
2026-04-22 20:24 21.97937 -159.33759 102 ft 8 kts 272°
2026-04-22 20:24 21.97938 -159.33822 105 ft 8 kts 271°
2026-04-22 20:24 21.97939 -159.33883 109 ft 8 kts 270°
2026-04-22 20:24 21.97940 -159.33943 113 ft 8 kts 272°
2026-04-22 20:25 21.97941 -159.34002 112 ft 8 kts 269°
2026-04-22 20:25 21.97940 -159.34064 118 ft 9 kts 270°
2026-04-22 20:25 21.97940 -159.34136 117 ft 10 kts 268°
2026-04-22 20:25 21.97939 -159.34214 122 ft 10 kts 270°
2026-04-22 20:26 21.97938 -159.34288 124 ft 10 kts 270°
2026-04-22 20:26 21.97944 -159.34356 122 ft 9 kts 296°
2026-04-22 20:26 21.97982 -159.34408 125 ft 9 kts 313°
2026-04-22 20:26 21.98019 -159.34460 121 ft 9 kts 279°
2026-04-22 20:27 21.98022 -159.34509 126 ft 1 kts 315°
2026-04-22 20:27 21.98034 -159.34516 121 ft 3 kts 331°
2026-04-22 20:27 21.98049 -159.34533 125 ft 4 kts 315°
2026-04-22 20:27 21.98051 -159.34535 125 ft 0 kts 315°